TimeMDT,TemperatureF,Dew PointF,Humidity,Sea Level PressureIn,VisibilityMPH,Wind Direction,Wind SpeedMPH,Gust SpeedMPH,PrecipitationIn,Events,Conditions,WindDirDegrees,DateUTC
12:53 AM,70.0,64.9,84,30.06,10.0,South,6.9,-,N/A,,Clear,190,2013-07-22 06:53:00
1:53 AM,69.1,64.0,84,29.81,10.0,SSW,8.1,-,N/A,,Clear,210,2013-07-22 07:53:00
2:53 AM,69.1,62.1,78,29.80,10.0,WSW,4.6,-,N/A,,Overcast,240,2013-07-22 08:53:00
3:53 AM,69.1,63.0,81,29.79,10.0,WSW,6.9,-,N/A,,Overcast,250,2013-07-22 09:53:00
4:53 AM,68.0,63.0,84,29.85,10.0,SW,6.9,-,N/A,,Clear,220,2013-07-22 10:53:00
5:53 AM,66.0,62.1,87,29.85,10.0,SSW,4.6,-,N/A,,Clear,210,2013-07-22 11:53:00
6:53 AM,66.0,62.1,87,29.86,10.0,SSW,6.9,-,N/A,,Clear,200,2013-07-22 12:53:00
7:53 AM,71.1,63.0,75,29.87,10.0,WSW,5.8,-,N/A,,Clear,250,2013-07-22 13:53:00
8:53 AM,75.9,63.0,64,29.86,10.0,WSW,4.6,-,N/A,,Clear,240,2013-07-22 14:53:00
9:53 AM,79.0,61.0,54,29.86,10.0,Variable,6.9,-,N/A,,Clear,0,2013-07-22 15:53:00
10:53 AM,82.9,60.1,46,29.86,10.0,West,6.9,-,N/A,,Clear,280,2013-07-22 16:53:00
11:53 AM,87.1,57.9,37,29.83,10.0,WNW,10.4,-,N/A,,Clear,290,2013-07-22 17:53:00
12:53 PM,90.0,57.0,33,29.81,10.0,West,8.1,23.0,N/A,,Scattered Clouds,260,2013-07-22 18:53:00
1:53 PM,88.0,55.9,34,29.78,10.0,West,15.0,24.2,N/A,,Mostly Cloudy,260,2013-07-22 19:53:00
2:15 PM,91.4,57.2,31,30.01,10.0,WSW,17.3,26.5,N/A,Thunderstorm,Mostly Cloudy,250,2013-07-22 20:15:00
2:30 PM,91.4,55.4,29,30.01,10.0,WSW,17.3,29.9,N/A,,Mostly Cloudy,250,2013-07-22 20:30:00
2:48 PM,87.8,57.2,35,30.02,10.0,NW,20.7,31.1,N/A,Thunderstorm,Mostly Cloudy,310,2013-07-22 20:48:00
2:53 PM,84.0,60.1,44,29.79,10.0,NNW,27.6,34.5,N/A,Thunderstorm,Mostly Cloudy,340,2013-07-22 20:53:00
3:00 PM,78.8,60.8,54,30.02,9.0,NNW,25.3,35.7,N/A,Thunderstorm,Overcast,340,2013-07-22 21:00:00
3:27 PM,77.0,59.0,54,30.02,10.0,NNW,21.9,32.2,N/A,,Overcast,330,2013-07-22 21:27:00
3:53 PM,73.0,61.0,66,29.84,2.5,WNW,13.8,23.0,0.04,Rain,Heavy Rain,290,2013-07-22 21:53:00
4:00 PM,73.4,62.6,69,30.02,4.0,West,12.7,-,0.01,Rain,Rain,260,2013-07-22 22:00:00
4:53 PM,78.1,63.0,60,29.77,10.0,NNW,9.2,-,0.01,,Clear,330,2013-07-22 22:53:00
5:53 PM,86.0,63.0,46,29.75,10.0,NW,10.4,-,N/A,,Clear,310,2013-07-22 23:53:00
6:53 PM,87.1,59.0,39,29.74,10.0,NW,13.8,19.6,N/A,,Clear,310,2013-07-23 00:53:00
7:53 PM,84.9,57.9,40,29.74,10.0,WNW,13.8,-,N/A,,Clear,300,2013-07-23 01:53:00
8:53 PM,80.1,61.0,52,29.75,10.0,NW,9.2,-,N/A,,Clear,310,2013-07-23 02:53:00
9:53 PM,79.0,60.1,52,29.78,10.0,West,11.5,-,N/A,,Clear,280,2013-07-23 03:53:00
10:53 PM,75.0,60.1,60,29.82,10.0,SW,16.1,25.3,N/A,,Clear,220,2013-07-23 04:53:00
11:53 PM,73.0,62.1,68,29.83,10.0,SW,9.2,-,N/A,,Partly Cloudy,220,2013-07-23 05:53:00